Location: Wildlife_Club
(35.6000°N, 81.4330°W)
Time: 03:35:19
(UTC-05:00)

Amateur Radio Satellites - All Passes

Search period start: 10 February 2016 03:05
Search period end: 11 February 2016 03:05
Location: Wildlife_Club, 35.6000°N, 81.4330°W

Satellite Date Start Highest point End Downlink Frequencies (MHz)
Time Altitude Azimuth
ITAMSAT 1 10 Feb 03:14:15 03:19:31 90° 115° (ESE) 03:24:45 435.822/435.867
JAS-2 10 Feb 03:16:45 03:21:21 27° 294° (WNW) 03:25:40 435.910
AIST 2 10 Feb 03:21:00 03:23:33 16° 49° (NE) 03:26:05 435.215
CUSAT 1 10 Feb 03:27:50 03:34:13 26° 290° (WNW) 03:40:44 437.405
Cosmos 2491 10 Feb 03:43:35 03:51:44 46° 272° (W) 03:59:55 435.465 / 435.565
SO-50 10 Feb 04:01:48 04:05:22 21° 109° (ESE) 04:09:00 436.795
DANDE 10 Feb 04:01:53 04:08:04 25° 293° (WNW) 04:14:44 436.750
Cosmos 2504 10 Feb 04:04:46 04:11:25 26° 82° (E) 04:18:16 435.465 / 435.565
AO-7 10 Feb 04:15:34 04:23:55 72° 105° (ESE) 04:32:10 29.400- 29.500
STARS 10 Feb 04:15:39 04:19:32 30° 263° (W) 04:23:26 437.465
HORYU 2 10 Feb 04:17:27 04:21:22 30° 98° (E) 04:25:17 437.375
Gurwin Techsat 1B 10 Feb 04:18:57 04:21:02 12° 298° (WNW) 04:23:07 435.225
MOZHAYETS 4 10 Feb 04:27:04 04:31:13 35° 262° (W) 04:35:26
YUBILEINY 10 Feb 04:28:58 04:37:19 49° 282° (WNW) 04:45:49 435.215
PHONESAT 2.4 10 Feb 04:29:17 04:32:23 38° 10° (N) 04:35:28 2401.200-2431.200
M-CUBED/EXP-1 PRIME 10 Feb 04:31:06 04:34:27 50° 105° (ESE) 04:38:00 437.505
KKS-1 10 Feb 04:36:54 04:37:16 10° 268° (W) 04:37:37 437.445
AUBIESAT-1 10 Feb 04:40:46 04:44:11 55° 106° (ESE) 04:47:49 437.475
AIST 2 10 Feb 04:58:20 05:02:15 44° 246° (WSW) 05:06:10 435.215
CUBESAT XI-V 10 Feb 05:07:34 05:12:07 56° 75° (ENE) 05:16:45 437.345
SO-50 10 Feb 05:40:56 05:45:34 42° 305° (NW) 05:50:16 436.795
LilacSat-2 10 Feb 05:46:04 05:47:42 12° 93° (E) 05:49:19 437.200
STRAND 1 10 Feb 05:53:01 05:56:55 22° 67° (ENE) 06:00:49 437.568
HORYU 2 10 Feb 05:54:23 05:57:44 21° 292° (WNW) 06:01:04 437.375
Cosmos 2504 10 Feb 05:55:41 06:04:03 61° 280° (W) 06:12:51 435.465 / 435.565
PHONESAT 2.4 10 Feb 06:06:31 06:09:45 63° 206° (SSW) 06:12:59 2401.200-2431.200
AO-7 10 Feb 06:09:42 06:15:53 24° 303° (WNW) 06:22:03 29.400- 29.500
CUTE-I 10 Feb 06:32:35 06:37:55 59° 101° (E) 06:43:12 437.470
PRISM 10 Feb 06:39:06 06:41:44 16° 67° (ENE) 06:44:22 437.425
GOMX 1 10 Feb 06:41:55 06:44:30 15° 92° (E) 06:47:01 467.674
Cubesat XI-IV 10 Feb 06:46:20 06:51:45 80° 103° (ESE) 06:57:08 437.490
CUBESAT XI-V 10 Feb 06:47:57 06:49:49 12° 269° (W) 06:51:42 437.345
BRITE-PL 10 Feb 07:13:56 07:18:39 86° 99° (E) 07:22:59 437.365/2234.400
LilacSat-2 10 Feb 07:18:41 07:22:08 34° 286° (WNW) 07:25:35 437.200
STRAND 1 10 Feb 07:31:06 07:35:49 37° 262° (W) 07:40:34 437.568
PHONESAT 2.4 10 Feb 07:46:05 07:46:34 10° 219° (SW) 07:47:03 2401.200-2431.200
DOVE 4 10 Feb 07:58:10 08:02:21 60° 100° (E) 08:06:25 437.250
GONETS M04 10 Feb 07:59:38 08:06:16 25° 83° (E) 08:12:55
HO-68 10 Feb 08:08:09 08:14:49 39° 99° (E) 08:21:26 435.675
CANX-2 10 Feb 08:10:14 08:14:12 36° 98° (E) 08:18:11 2200.000
PRISM 10 Feb 08:12:58 08:16:45 34° 261° (W) 08:20:35 437.425
CUTE-I 10 Feb 08:14:13 08:17:25 16° 296° (WNW) 08:20:37 437.470
GOMX 1 10 Feb 08:18:47 08:22:46 35° 288° (WNW) 08:26:35 467.674
O/OREOS (USA 219) 10 Feb 08:22:35 08:27:01 62° 292° (WNW) 08:31:29 437.305
Cubesat XI-IV 10 Feb 08:29:09 08:31:05 12° 299° (WNW) 08:33:00 437.490
JUGNU 10 Feb 08:36:03 08:39:05 14° 171° (S) 08:42:06 437.505
CINEMA 3 10 Feb 08:50:11 08:54:21 79° 102° (ESE) 08:58:33 145.822/145.860
COMPASS 1 10 Feb 08:51:41 08:55:50 53° 100° (E) 08:59:58 437.405
Oscar 11 10 Feb 08:54:38 08:57:37 18° 94° (E) 09:00:36 145.826/435.025
CUBEBUG 2 10 Feb 08:55:17 08:58:57 28° 97° (E) 09:02:39 437.445
UWE-3 10 Feb 08:55:46 08:58:56 20° 95° (E) 09:02:09 435.000/436.395/437.385
CUTE 1.7 + AOD 2 10 Feb 09:00:38 09:04:52 61° 284° (WNW) 09:09:06 437.475
AO-85 10 Feb 09:03:39 09:06:15 14° 105° (ESE) 09:08:53 145.980
Cosmos 2499 10 Feb 09:04:15 09:11:27 30° 84° (E) 09:18:48 435.465 / 435.565
SEEDS 10 Feb 09:06:23 09:10:39 71° 283° (WNW) 09:14:53 437.485
UNISAT 6 10 Feb 09:11:35 09:14:32 18° 68° (ENE) 09:17:27 437.425
AAUSAT CUBESAT 2 10 Feb 09:19:59 09:24:13 84° 280° (W) 09:28:25 437.432
CANX-2 10 Feb 09:47:02 09:49:46 17° 292° (WNW) 09:52:28 2200.000
ZACube-1 10 Feb 09:48:14 09:52:25 60° 101° (E) 09:56:41 437.345
POPSAT HIP 1 10 Feb 09:52:12 09:53:30 11° 65° (ENE) 09:54:48 437.405
GONETS M04 10 Feb 09:53:51 10:02:22 60° 280° (W) 10:10:58
ANTELSAT 10 Feb 09:55:06 09:59:22 58° 75° (ENE) 10:03:34 437.575/2403.000
HO-68 10 Feb 09:55:59 10:02:22 36° 295° (WNW) 10:08:44 435.675
NANOSAT C BR1 10 Feb 09:56:11 09:57:55 12° 66° (ENE) 09:59:40 145.865
FUNcube-1 10 Feb 09:57:05 10:01:19 74° 102° (ESE) 10:05:36 145.935
DUCHIFAT 1 10 Feb 09:57:31 09:59:10 12° 66° (ENE) 10:00:50 145.980
TIGRISAT 10 Feb 10:01:48 10:06:06 67° 76° (ENE) 10:10:21 435.000
QB50P1 10 Feb 10:03:25 10:05:59 16° 68° (ENE) 10:08:33 145.935-145.965
HUMSAT D 10 Feb 10:04:23 10:07:48 24° 96° (E) 10:11:14 437.325/437.525
SRMSAT 10 Feb 10:13:17 10:15:46 13° 169° (SSE) 10:18:14 437.500
AIST 1 10 Feb 10:22:01 10:26:01 36° 91° (E) 10:30:03
JUGNU 10 Feb 10:23:43 10:27:20 17° 182° (S) 10:30:56 437.505
COMPASS 1 10 Feb 10:29:35 10:30:55 11° 294° (WNW) 10:32:14 437.405
Oscar 11 10 Feb 10:29:54 10:33:47 33° 288° (WNW) 10:37:41 145.826/435.025
DELFI C3 10 Feb 10:31:03 10:35:01 56° 285° (WNW) 10:38:58 145.870
UWE-3 10 Feb 10:31:47 10:35:22 27° 289° (WNW) 10:39:00 435.000/436.395/437.385
CUBEBUG 2 10 Feb 10:32:20 10:35:23 20° 290° (WNW) 10:38:29 437.445
AO-85 10 Feb 10:40:49 10:46:05 71° 301° (WNW) 10:51:36 145.980
50 SAT 10 Feb 10:40:56 10:42:20 12° 93° (E) 10:43:43 437.505
ESTCUBE 1 10 Feb 10:43:22 10:45:43 14° 93° (E) 10:48:02 437.505/2401.250
DX 1 10 Feb 10:43:49 10:45:32 12° 93° (E) 10:47:14 434.975-435.025
UNISAT 6 10 Feb 10:47:06 10:51:00 32° 262° (W) 10:54:53 437.425
POLYITAN 1 10 Feb 10:54:19 10:58:30 65° 75° (ENE) 11:02:42 437.675
QB50P2 10 Feb 10:54:55 10:59:07 68° 76° (ENE) 11:03:21 145.880/145.840
BUGSAT 1 10 Feb 10:55:08 10:58:48 29° 71° (ENE) 11:02:26 437.445
Cosmos 2499 10 Feb 10:55:38 11:04:02 54° 281° (WNW) 11:12:44 435.465 / 435.565
PCSat 10 Feb 10:57:44 11:03:09 89° 297° (WNW) 11:08:36 145.827
RS-15 10 Feb 11:13:30 11:24:13 60° 111° (ESE) 11:35:28 29.354- 29.394
POPSAT HIP 1 10 Feb 11:24:39 11:28:48 54° 260° (W) 11:32:57 437.405
ZACube-1 10 Feb 11:27:48 11:28:12 10° 295° (WNW) 11:28:37 437.345
NANOSAT C BR1 10 Feb 11:29:07 11:33:13 48° 260° (W) 11:37:19 145.865
DUCHIFAT 1 10 Feb 11:30:20 11:34:26 49° 260° (W) 11:38:32 145.980
QB50P1 10 Feb 11:37:31 11:41:26 37° 261° (W) 11:45:23 145.935-145.965
VELOX 1 10 Feb 11:37:48 11:42:06 51° 100° (E) 11:46:22 145.980
HUMSAT D 10 Feb 11:40:01 11:43:20 23° 290° (WNW) 11:46:39 437.325/437.525
JAS-2 10 Feb 11:41:44 11:45:33 15° 61° (ENE) 11:49:14 435.910
Oscar 19 10 Feb 11:43:32 11:45:40 13° 63° (ENE) 11:47:47 437.125/150
AISAT 10 Feb 11:54:29 11:58:54 86° 104° (ESE) 12:03:17 437.250
SRMSAT 10 Feb 12:00:30 12:04:09 17° 179° (S) 12:07:49 437.500
AIST 1 10 Feb 12:01:01 12:03:44 16° 286° (WNW) 12:06:27
UKube-1 10 Feb 12:04:45 12:09:05 83° 285° (WNW) 12:13:23 .
CUBEBUG 1 10 Feb 12:12:51 12:17:13 72° 284° (WNW) 12:21:31 437.445
50 SAT 10 Feb 12:12:57 12:16:29 38° 286° (WNW) 12:20:01 437.505
JUGNU 10 Feb 12:13:14 12:15:34 12° 192° (SSW) 12:17:53 437.505
SPROUT 10 Feb 12:13:27 12:17:23 36° 98° (E) 12:21:18 437.525
DX 1 10 Feb 12:17:46 12:21:58 48° 286° (WNW) 12:26:07 434.975-435.025
ESTCUBE 1 10 Feb 12:18:22 12:22:43 46° 287° (WNW) 12:27:03 437.505/2401.250
TISAT 1 10 Feb 12:21:51 12:24:14 15° 94° (E) 12:26:38 437.305
AO-85 10 Feb 12:25:34 12:27:36 12° 319° (NW) 12:29:40 145.980
CUSAT 1 10 Feb 12:26:46 12:31:35 29° 70° (ENE) 12:35:22 437.405
BUGSAT 1 10 Feb 12:31:10 12:34:10 19° 265° (W) 12:37:09 437.445
SO-50 10 Feb 12:37:31 12:38:37 11° 41° (NE) 12:39:42 436.795
PCSat 10 Feb 12:44:52 12:47:18 13° 314° (NW) 12:49:43 145.827
YUBILEINY 10 Feb 12:49:32 12:52:49 12° 62° (ENE) 12:56:05 435.215
ITAMSAT 1 10 Feb 12:54:12 12:55:39 11° 61° (ENE) 12:57:06 435.822/435.867
DANDE 10 Feb 13:03:34 13:09:56 41° 73° (ENE) 13:14:48 436.750
VELOX 1 10 Feb 13:16:06 13:18:06 13° 295° (WNW) 13:20:06 145.980
Oscar 19 10 Feb 13:19:09 13:24:20 72° 258° (WSW) 13:29:31 437.125/150
BEESAT 10 Feb 13:21:36 13:23:40 13° 92° (E) 13:25:44 436.000
JAS-2 10 Feb 13:21:57 13:29:42 84° 75° (ENE) 13:36:52 435.910
AO-7 10 Feb 13:23:38 13:27:48 15° 52° (NE) 13:31:57 29.400- 29.500
RS-15 10 Feb 13:26:52 13:37:07 40° 314° (NW) 13:47:55 29.354- 29.394
SRMSAT 10 Feb 13:49:33 13:52:34 14° 189° (S) 13:55:34 437.500
SPROUT 10 Feb 13:50:24 13:53:03 16° 292° (WNW) 13:55:41 437.525
Gurwin Techsat 1B 10 Feb 13:54:30 13:59:49 89° 77° (ENE) 14:05:09 435.225
TISAT 1 10 Feb 13:56:12 14:00:02 36° 288° (WNW) 14:03:51 437.305
CUSAT 1 10 Feb 14:09:31 14:13:31 22° 276° (W) 14:16:48 437.405
SWISSCUBE 10 Feb 14:11:50 14:16:32 51° 100° (E) 14:21:11 437.505
SO-50 10 Feb 14:15:07 14:19:55 80° 61° (ENE) 14:24:32 436.795
ITAMSAT 1 10 Feb 14:29:12 14:34:22 81° 256° (WSW) 14:39:36 435.822/435.867
YUBILEINY 10 Feb 14:42:19 14:51:11 75° 82° (E) 14:59:58 435.215
Cosmos 2491 10 Feb 14:44:19 14:52:22 44° 88° (E) 15:00:25 435.465 / 435.565
DANDE 10 Feb 14:47:21 14:52:18 23° 277° (W) 14:56:22 436.750
ITUPSAT 1 10 Feb 14:48:55 14:53:44 71° 285° (WNW) 14:58:31 437.325
KKS-1 10 Feb 14:51:26 14:53:52 14° 93° (E) 14:56:16 437.445
BEESAT 10 Feb 14:57:04 15:01:46 56° 286° (WNW) 15:06:26 436.000
JAS-2 10 Feb 15:10:42 15:15:08 16° 268° (W) 15:19:26 435.910
AO-7 10 Feb 15:10:50 15:19:09 75° 70° (ENE) 15:27:31 29.400- 29.500
HORYU 2 10 Feb 15:13:19 15:16:32 20° 68° (ENE) 15:19:45 437.375
M-CUBED/EXP-1 PRIME 10 Feb 15:15:54 15:19:22 39° 70° (ENE) 15:22:38 437.505
ISS 10 Feb 15:24:53 15:28:07 78° 137° (SE) 15:31:22 145.825
AUBIESAT-1 10 Feb 15:25:05 15:28:33 41° 70° (ENE) 15:31:51 437.475
RS-15 10 Feb 15:48:16 15:54:25 15° 347° (NNW) 16:00:42 29.354- 29.394
SWISSCUBE 10 Feb 15:51:09 15:53:51 15° 295° (WNW) 15:56:33 437.505
Cosmos 2504 10 Feb 15:52:42 16:00:49 45° 76° (ENE) 16:08:21 435.465 / 435.565
STARS 10 Feb 16:07:25 16:11:44 58° 101° (E) 16:16:01 437.465
MOZHAYETS 4 10 Feb 16:24:27 16:29:05 66° 101° (E) 16:33:41
KKS-1 10 Feb 16:26:25 16:30:36 42° 287° (WNW) 16:34:46 437.445
BEESAT 3 10 Feb 16:26:36 16:30:01 28° 113° (ESE) 16:33:28 437.485
Cubesat XI-IV 10 Feb 16:29:55 16:31:25 11° 61° (ENE) 16:32:55 437.490
YUBILEINY 10 Feb 16:41:08 16:46:56 20° 280° (W) 16:52:46 435.215
Cosmos 2491 10 Feb 16:41:27 16:49:13 36° 286° (WNW) 16:57:03 435.465 / 435.565
HORYU 2 10 Feb 16:48:57 16:52:52 31° 262° (W) 16:56:48 437.375
BEESAT 2 10 Feb 16:51:51 16:55:30 35° 114° (ESE) 16:59:10 435.950
M-CUBED/EXP-1 PRIME 10 Feb 16:53:48 16:54:04 10° 260° (W) 16:54:21 437.505
O/OREOS (USA 219) 10 Feb 16:57:52 17:00:15 14° 58° (ENE) 17:02:36 437.305
ISS 10 Feb 17:03:10 17:04:55 14° 333° (NNW) 17:06:40 145.825
AO-7 10 Feb 17:06:43 17:12:32 20° 266° (W) 17:18:23 29.400- 29.500
CUBESAT XI-V 10 Feb 17:08:15 17:11:25 18° 93° (E) 17:14:33 437.345
STARS 10 Feb 17:46:18 17:47:34 11° 296° (WNW) 17:48:50 437.465
GOMX 1 10 Feb 17:46:28 17:49:56 18° 67° (ENE) 17:53:18 467.674
Cosmos 2504 10 Feb 17:46:32 17:53:51 34° 275° (W) 18:00:45 435.465 / 435.565
CUTE-I 10 Feb 17:51:26 17:56:43 72° 75° (ENE) 18:02:03 437.470
LilacSat-2 10 Feb 17:57:17 18:01:04 69° 77° (ENE) 18:04:51 437.200
MOZHAYETS 4 10 Feb 18:04:19 18:05:39 11° 296° (WNW) 18:07:00
BEESAT 3 10 Feb 18:04:41 18:07:46 21° 308° (NW) 18:10:51 437.485
Cubesat XI-IV 10 Feb 18:05:23 18:10:42 84° 257° (WSW) 18:16:05 437.490
RS-15 10 Feb 18:06:06 18:14:04 19° 25° (NNE) 18:22:07 29.354- 29.394
BRITE-PL 10 Feb 18:20:00 18:25:41 73° 76° (ENE) 18:31:15 437.365/2234.400
BEESAT 2 10 Feb 18:30:39 18:33:28 18° 309° (NW) 18:36:20 435.950
HO-68 10 Feb 18:34:53 18:40:09 23° 61° (ENE) 18:45:24 435.675
O/OREOS (USA 219) 10 Feb 18:35:29 18:39:58 54° 253° (WSW) 18:44:26 437.305
CUBESAT XI-V 10 Feb 18:44:33 18:48:55 38° 288° (WNW) 18:53:13 437.345
AIST 2 10 Feb 18:52:36 18:56:45 76° 119° (ESE) 19:00:56 435.215
DOVE 4 10 Feb 18:59:50 19:04:44 47° 74° (ENE) 19:09:25 437.250
CANX-2 10 Feb 19:01:04 19:03:57 18° 69° (ENE) 19:06:50 2200.000
AO-85 10 Feb 19:16:16 19:21:11 47° 55° (NE) 19:25:41 145.980
GOMX 1 10 Feb 19:22:16 19:27:35 54° 260° (W) 19:32:43 467.674
CUTE-I 10 Feb 19:35:32 19:37:14 11° 269° (W) 19:38:57 437.470
COMPASS 1 10 Feb 19:40:08 19:43:29 24° 70° (ENE) 19:46:50 437.405
STRAND 1 10 Feb 19:44:04 19:49:16 88° 284° (WNW) 19:54:25 437.568
CINEMA 3 10 Feb 19:48:33 19:53:03 50° 75° (ENE) 19:57:23 145.822/145.860
PCSat 10 Feb 19:48:48 19:53:52 38° 57° (ENE) 19:58:54 145.827
CUTE 1.7 + AOD 2 10 Feb 19:50:05 19:54:13 61° 75° (ENE) 19:58:23 437.475
CUBEBUG 2 10 Feb 19:51:30 19:54:22 18° 69° (ENE) 19:57:11 437.445
UWE-3 10 Feb 19:51:46 19:53:24 12° 67° (ENE) 19:55:02 435.000/436.395/437.385
SEEDS 10 Feb 19:55:02 19:59:04 51° 75° (ENE) 20:03:09 437.485
PRISM 10 Feb 19:57:25 20:01:19 37° 99° (E) 20:05:09 437.425
BRITE-PL 10 Feb 20:01:54 20:04:31 13° 269° (W) 20:07:07 437.365/2234.400
AAUSAT CUBESAT 2 10 Feb 20:07:20 20:11:13 41° 74° (ENE) 20:15:08 437.432
GONETS M04 10 Feb 20:07:31 20:16:14 61° 80° (E) 20:24:55
RS-15 10 Feb 20:18:09 20:30:06 56° 53° (NE) 20:42:08 29.354- 29.394
HO-68 10 Feb 20:20:07 20:27:13 65° 257° (WSW) 20:34:22 435.675
AIST 2 10 Feb 20:34:44 20:35:46 11° 315° (NW) 20:36:48 435.215
CANX-2 10 Feb 20:35:49 20:39:33 31° 263° (W) 20:43:19 2200.000
DOVE 4 10 Feb 20:39:18 20:42:33 17° 266° (W) 20:45:43 437.250
ZACube-1 10 Feb 20:41:30 20:45:14 31° 72° (ENE) 20:48:55 437.345
FUNcube-1 10 Feb 20:49:55 20:53:48 37° 73° (ENE) 20:57:38 145.935
Cosmos 2499 10 Feb 20:51:18 20:59:19 49° 77° (ENE) 21:06:42 435.465 / 435.565
HUMSAT D 10 Feb 20:54:58 20:56:26 12° 66° (ENE) 20:57:55 437.325/437.525
AO-85 10 Feb 20:58:02 21:01:10 17° 254° (WSW) 21:04:09 145.980
DELFI C3 10 Feb 21:14:09 21:18:00 52° 75° (ENE) 21:21:54 145.870
COMPASS 1 10 Feb 21:15:43 21:18:58 22° 265° (W) 21:22:14 437.405
Oscar 11 10 Feb 21:21:02 21:25:16 63° 259° (W) 21:29:33 145.826/435.025
UWE-3 10 Feb 21:25:18 21:29:27 49° 260° (W) 21:33:32 435.000/436.395/437.385
CUBEBUG 2 10 Feb 21:26:48 21:30:45 33° 262° (W) 21:34:36 437.445
CINEMA 3 10 Feb 21:28:18 21:30:22 13° 267° (W) 21:32:24 145.822/145.860
PCSat 10 Feb 21:32:40 21:37:01 25° 253° (WSW) 21:41:21 145.827
PRISM 10 Feb 21:33:51 21:36:18 15° 293° (WNW) 21:38:45 437.425
SEEDS 10 Feb 21:34:22 21:35:04 10° 269° (W) 21:35:46 437.485
AAUSAT CUBESAT 2 10 Feb 21:45:02 21:46:54 13° 268° (W) 21:48:46 437.432
ANTELSAT 10 Feb 21:50:53 21:53:26 15° 94° (E) 21:56:01 437.575/2403.000
ISS 10 Feb 21:55:17 21:58:03 25° 34° (NNE) 22:00:47 145.825
TIGRISAT 10 Feb 21:57:09 22:00:00 17° 94° (E) 22:02:54 435.000
GONETS M04 10 Feb 22:05:35 22:12:19 25° 277° (W) 22:19:05
AIST 1 10 Feb 22:09:08 22:13:30 85° 264° (W) 22:17:47
ZACube-1 10 Feb 22:18:45 22:21:33 17° 266° (W) 22:24:21 437.345
HUMSAT D 10 Feb 22:27:42 22:31:38 46° 261° (W) 22:35:35 437.325/437.525
FUNcube-1 10 Feb 22:27:53 22:30:10 14° 266° (W) 22:32:27 145.935
RS-15 10 Feb 22:31:10 22:42:13 42° 253° (WSW) 22:53:20 29.354- 29.394
VELOX 1 10 Feb 22:32:21 22:36:17 31° 71° (ENE) 22:40:15 145.980
UNISAT 6 10 Feb 22:40:57 22:45:16 60° 101° (E) 22:49:40 437.425
POLYITAN 1 10 Feb 22:44:07 22:46:04 13° 93° (E) 22:48:01 437.675
QB50P2 10 Feb 22:44:33 22:46:42 14° 93° (E) 22:48:50 145.880/145.840
Cosmos 2499 10 Feb 22:45:12 22:51:55 29° 277° (W) 22:58:15 435.465 / 435.565
AISAT 10 Feb 22:48:45 22:53:05 51° 74° (ENE) 22:57:26 437.250
50 SAT 10 Feb 22:49:53 22:53:30 61° 76° (ENE) 22:57:11 437.505
UKube-1 10 Feb 22:56:10 23:00:24 55° 74° (ENE) 23:04:38 .
SPROUT 10 Feb 23:04:58 23:08:06 20° 69° (ENE) 23:11:14 437.525
CUBEBUG 1 10 Feb 23:05:28 23:09:51 63° 75° (ENE) 23:14:15 437.445
DX 1 10 Feb 23:09:49 23:14:12 85° 257° (WSW) 23:18:36 434.975-435.025
POPSAT HIP 1 10 Feb 23:12:45 23:16:24 28° 97° (E) 23:20:01 437.405
ESTCUBE 1 10 Feb 23:14:27 23:18:57 74° 258° (WSW) 23:23:31 437.505/2401.250
NANOSAT C BR1 10 Feb 23:16:44 23:20:28 31° 97° (E) 23:24:11 145.865
DUCHIFAT 1 10 Feb 23:17:44 23:21:26 30° 98° (E) 23:25:06 145.980
QB50P1 10 Feb 23:25:02 23:29:00 40° 99° (E) 23:32:58 145.935-145.965
ANTELSAT 10 Feb 23:26:11 23:30:16 40° 287° (WNW) 23:34:25 437.575/2403.000
ISS 10 Feb 23:31:39 23:34:27 27° 229° (SW) 23:37:15 145.825
TIGRISAT 10 Feb 23:32:48 23:36:45 35° 288° (WNW) 23:40:47 435.000
VELOX 1 11 Feb 00:09:30 00:12:46 20° 265° (W) 00:16:04 145.980
BUGSAT 1 11 Feb 00:14:39 00:18:41 77° 102° (ESE) 00:22:41 437.445
POLYITAN 1 11 Feb 00:18:05 00:22:03 42° 287° (WNW) 00:26:02 437.675
QB50P2 11 Feb 00:18:42 00:22:39 40° 287° (WNW) 00:26:35 145.880/145.840
PHONESAT 2.4 11 Feb 00:19:27 00:22:38 49° 152° (SSE) 00:25:49 2401.200-2431.200
UNISAT 6 11 Feb 00:20:19 00:21:29 11° 295° (WNW) 00:22:38 437.425
BEESAT 11 Feb 00:26:26 00:27:49 11° 63° (ENE) 00:29:13 436.000
AISAT 11 Feb 00:28:04 00:29:50 12° 268° (W) 00:31:36 437.250
UKube-1 11 Feb 00:35:46 00:36:44 11° 268° (W) 00:37:41 .
SPROUT 11 Feb 00:40:06 00:43:52 29° 263° (W) 00:47:39 437.525
TISAT 1 11 Feb 00:44:20 00:48:34 76° 258° (WSW) 00:52:47 437.305
POPSAT HIP 1 11 Feb 00:48:56 00:51:59 20° 291° (WNW) 00:55:02 437.405
NANOSAT C BR1 11 Feb 00:53:06 00:55:58 18° 292° (WNW) 00:58:51 145.865
DUCHIFAT 1 11 Feb 00:54:00 00:56:55 19° 291° (WNW) 00:59:48 145.980
Cosmos 2491 11 Feb 00:59:30 01:05:02 18° 67° (ENE) 01:10:33 435.465 / 435.565
QB50P1 11 Feb 01:02:10 01:04:26 14° 293° (WNW) 01:06:41 145.935-145.965
BEESAT 2 11 Feb 01:15:16 01:15:51 10° 46° (NE) 01:16:26 435.950
SWISSCUBE 11 Feb 01:15:24 01:19:52 42° 72° (ENE) 01:24:22 437.505
CUSAT 1 11 Feb 01:22:22 01:29:55 53° 92° (E) 01:37:41 437.405
Oscar 19 11 Feb 01:33:49 01:38:49 51° 100° (E) 01:43:46 437.125/150
YUBILEINY 11 Feb 01:47:32 01:52:11 16° 78° (ENE) 01:56:50 435.215
ITUPSAT 1 11 Feb 01:52:29 01:57:15 86° 257° (WSW) 02:02:04 437.325
PHONESAT 2.4 11 Feb 01:56:47 01:59:56 42° 348° (NNW) 02:03:06 2401.200-2431.200
BEESAT 11 Feb 02:00:15 02:04:59 70° 259° (WSW) 02:09:45 436.000
DANDE 11 Feb 02:04:50 02:12:18 63° 93° (E) 02:20:39 436.750
Gurwin Techsat 1B 11 Feb 02:13:53 02:18:59 45° 99° (E) 02:24:03 435.225
JAS-2 11 Feb 02:21:02 02:26:36 85° 284° (WNW) 02:31:48 435.910
BEESAT 3 11 Feb 02:23:53 02:27:51 89° 59° (ENE) 02:31:47 437.485
ITAMSAT 1 11 Feb 02:45:09 02:50:11 46° 99° (E) 02:55:11 435.822/435.867
BEESAT 2 11 Feb 02:50:14 02:54:13 73° 242° (WSW) 02:58:09 435.950
SWISSCUBE 11 Feb 02:54:46 02:57:49 17° 266° (W) 03:00:54 437.505
